Flag for Japan Weather past 2 weeks in Kagoshima, Japan

Now
71 °F

Mild.


Feels Like: 66 °F
Forecast: 71 / 78 °F
Wind: 3 mph from North

Location: Kagoshima

Current Time: Sep 22, 2014 at 5:22:09 AM

Latest Report: Sep 22, 2014 at 4:00 AM


Visibility: N/A

Pressure: 29.98 "Hg

Humidity: 96%

Dew point: 70 °F

Location of KagoshimaLocation

Historic Weather in Kagoshima — Graph

°F

Kagoshima temperature yesterday

Maximum temperature yesterday: 75 °F (at 1:00 PM)
Minimum temperature yesterday: 67 °F (at 6:00 AM)
Average temperature yesterday: 71 °F

Past Weeks' High & Low Weather Summary

 TemperatureHumidityPressure
High90 °F (Sep 8, 3:00 PM)97% (Sep 22, 12:00 AM)30.02 "Hg (Sep 22, 12:00 AM)
Low64 °F (Sep 20, 1:00 AM)50% (Sep 9, 1:00 PM)29.59 "Hg (Sep 8, 4:00 PM)
Average76 °F78%29.84 "Hg
* Reported Sep 7 4:00 AM — Sep 22 4:00 AM, Kagoshima, Weather by CustomWeather, © 2014

Note: Actual official high and low records may vary slightly from our data, if they occured in-between our weather recording intervals... More about our weather records

Advertising

Kagoshima weather history for previous 24 hours

 ConditionsComfort  
Time TempWeatherWind HumidityBarometerVisibility
4:00 AM
Sep 22
71 °FMild.3 mph96%29.98 "HgN/A
3:00 AM73 °FLight rain. Overcast.8 mph91%29.99 "Hg6 mi
2:00 AM72 °FMild.5 mph94%29.99 "HgN/A
1:00 AM72 °FMild.5 mph93%29.99 "HgN/A
12:00 AM72 °FMild.1 mph97%30.00 "HgN/A
11:00 PM
Sep 21
71 °FMild.2 mph96%30.02 "HgN/A
10:00 PM72 °FMild.3 mph93%30.01 "HgN/A
9:00 PM72 °FLight rain. Overcast.7 mph92%30.00 "Hg6 mi
8:00 PM72 °FMild.5 mph93%30.00 "HgN/A
7:00 PM72 °FMild.3 mph93%29.98 "HgN/A
6:00 PM72 °FLight rain. Overcast.5 mph93%29.96 "Hg6 mi
5:00 PM72 °FMild.5 mph91%29.97 "HgN/A
4:00 PM72 °FMild.8 mph92%29.96 "HgN/A
3:00 PM72 °FRain. Overcast.3 mph94%29.98 "Hg9 mi
2:00 PM74 °FMild.8 mph82%29.95 "HgN/A
1:00 PM75 °FMild.1 mph83%29.95 "HgN/A
12:00 PM71 °FLight rain. Overcast.9 mph89%29.96 "Hg6 mi
11:00 AM71 °FMild.3 mph91%30.02 "HgN/A
10:00 AM71 °FMild.2 mph91%29.99 "HgN/A
9:00 AM69 °FLight rain. Overcast.7 mph94%29.98 "Hg6 mi
8:00 AM69 °FMild.6 mph93%30.00 "HgN/A
7:00 AM68 °FMild.7 mph94%30.00 "HgN/A
6:00 AM67 °FLight rain. Overcast.7 mph94%29.96 "Hg6 mi
5:00 AM68 °FMild.7 mph91%29.93 "HgN/A
Weather by CustomWeather, © 2014

See weather overviewHow to use our weather pages